ICE803 EDDH-BIKF

Flight info

Callsign ICE803
Flight time 1h 35m
Altitude 36000
Route ELSOB3G ELSOB Y348 OMWEG DCT BADOS DCT IPSUB DCT VAXIT DCT ARTEX DCT LAMRO DCT NALAN/M075F380 DCT ALDAN DCT ASRUN ASRUN2H
Aircraft B752/M-SDE2E3FGHIJ3J4J7RWXY/LB1

Departure

Time 2026-04-23 11:35
Airport Hamburg Helmut Schmidt Airport (EDDH)

Arrival

Time 2026-04-23 13:10
Airport Keflavik International Airport (BIKF)
Time Latitude Longitude Altitude Speed Heading
2026-04-23 11:06 53.63293 10.00347 43 ft 0 kts 87°
2026-04-23 11:27 53.63293 10.00345 43 ft 1 kts 87°
2026-04-23 11:27 53.63292 10.00320 43 ft 2 kts 87°
2026-04-23 11:27 53.63291 10.00294 42 ft 2 kts 93°
2026-04-23 11:28 53.63295 10.00270 42 ft 2 kts 118°
2026-04-23 11:28 53.63304 10.00250 41 ft 2 kts 139°
2026-04-23 11:28 53.63317 10.00236 41 ft 2 kts 160°
2026-04-23 11:28 53.63327 10.00232 41 ft 0 kts 175°
2026-04-23 11:29 53.63333 10.00232 41 ft 0 kts 176°
2026-04-23 11:31 53.63329 10.00232 41 ft 1 kts 175°
2026-04-23 11:31 53.63300 10.00236 41 ft 8 kts 175°
2026-04-23 11:31 53.63231 10.00245 41 ft 10 kts 176°
2026-04-23 11:32 53.63165 10.00251 40 ft 8 kts 175°
2026-04-23 11:32 53.63104 10.00259 40 ft 8 kts 176°
2026-04-23 11:32 53.63051 10.00243 40 ft 7 kts 210°
2026-04-23 11:32 53.63009 10.00199 40 ft 7 kts 212°
2026-04-23 11:33 53.62964 10.00149 39 ft 8 kts 213°
2026-04-23 11:33 53.62907 10.00087 38 ft 12 kts 213°
2026-04-23 11:33 53.62847 9.99970 36 ft 14 kts 242°
2026-04-23 11:33 53.62815 9.99826 34 ft 12 kts 278°
2026-04-23 11:34 53.62844 9.99766 33 ft 0 kts 332°
2026-04-23 11:34 53.62916 9.99702 31 ft 44 kts 332°
2026-04-23 11:34 53.63470 9.99221 36 ft 130 kts 333°
2026-04-23 11:34 53.64343 9.98406 204 ft 150 kts 324°
2026-04-23 11:35 53.65326 9.97533 998 ft 170 kts 334°
2026-04-23 11:35 53.66296 9.96744 2112 ft 162 kts 333°
2026-04-23 11:35 53.67391 9.95821 2566 ft 187 kts 333°
2026-04-23 11:35 53.68581 9.94815 3251 ft 201 kts 334°
2026-04-23 11:36 53.69851 9.93738 4146 ft 206 kts 334°
2026-04-23 11:36 53.70996 9.92212 4851 ft 223 kts 305°
2026-04-23 11:36 53.71508 9.89668 5465 ft 249 kts 275°
2026-04-23 11:36 53.71146 9.86679 6188 ft 271 kts 253°
2026-04-23 11:37 53.70447 9.83704 7137 ft 275 kts 255°
2026-04-23 11:37 53.69812 9.80701 8019 ft 280 kts 256°
2026-04-23 11:37 53.69217 9.77553 8907 ft 281 kts 265°
2026-04-23 11:37 53.69296 9.74345 9716 ft 276 kts 292°
2026-04-23 11:38 53.70224 9.71586 10315 ft 278 kts 314°
2026-04-23 11:38 53.71631 9.69311 10295 ft 276 kts 322°
2026-04-23 11:38 53.73050 9.67184 10285 ft 272 kts 320°
2026-04-23 11:38 53.74471 9.64977 10755 ft 283 kts 320°
2026-04-23 11:39 53.75951 9.62652 11163 ft 303 kts 319°
2026-04-23 11:39 53.77520 9.60159 11717 ft 317 kts 319°
2026-04-23 11:39 53.79127 9.57586 12525 ft 321 kts 319°
2026-04-23 11:39 53.80751 9.54981 13283 ft 327 kts 319°
2026-04-23 11:40 53.82387 9.52349 14112 ft 330 kts 319°
2026-04-23 11:40 53.84062 9.49650 14793 ft 338 kts 319°
2026-04-23 11:40 53.85767 9.46898 15573 ft 342 kts 319°
2026-04-23 11:40 53.88182 9.42994 16530 ft 351 kts 319°
2026-04-23 11:41 53.89959 9.40118 17226 ft 356 kts 319°
2026-04-23 11:41 53.91756 9.37205 17883 ft 362 kts 319°
2026-04-23 11:41 53.93596 9.34218 18540 ft 367 kts 319°
2026-04-23 11:41 53.95429 9.31239 19216 ft 371 kts 319°
2026-04-23 11:42 53.97315 9.28171 19854 ft 376 kts 318°
2026-04-23 11:42 53.99222 9.25063 20479 ft 381 kts 318°
2026-04-23 11:42 54.02437 9.19815 21495 ft 389 kts 318°
2026-04-23 11:42 54.06041 9.13915 22567 ft 396 kts 318°
2026-04-23 11:43 54.09822 9.07712 23641 ft 404 kts 318°
2026-04-23 11:43 54.13550 9.01578 24675 ft 410 kts 318°
2026-04-23 11:43 54.17416 8.95200 25709 ft 417 kts 318°
2026-04-23 11:43 54.21350 8.88693 26698 ft 423 kts 318°
2026-04-23 11:44 54.25229 8.82260 27603 ft 430 kts 318°
2026-04-23 11:44 54.29191 8.75669 28494 ft 436 kts 318°
2026-04-23 11:44 54.33028 8.69269 29313 ft 441 kts 318°
2026-04-23 11:44 54.37376 8.61996 30165 ft 447 kts 318°
2026-04-23 11:45 54.41819 8.54541 30966 ft 453 kts 318°
2026-04-23 11:45 54.46198 8.47168 31697 ft 458 kts 318°
2026-04-23 11:45 54.50527 8.39855 32587 ft 458 kts 318°
2026-04-23 11:45 54.54698 8.32789 33398 ft 457 kts 317°
2026-04-23 11:46 54.59155 8.25215 34202 ft 457 kts 316°
2026-04-23 11:46 54.63615 8.17608 35115 ft 455 kts 316°
2026-04-23 11:46 54.68003 8.10103 35945 ft 453 kts 316°
2026-04-23 11:46 54.72391 8.02573 36332 ft 453 kts 316°
2026-04-23 11:47 54.76792 7.94994 36326 ft 449 kts 316°
2026-04-23 11:47 54.85389 7.80123 36339 ft 450 kts 316°
2026-04-23 11:48 54.94104 7.64949 36340 ft 449 kts 316°
2026-04-23 11:48 55.02818 7.49677 36347 ft 451 kts 316°
2026-04-23 11:49 55.11492 7.34377 36347 ft 452 kts 315°
2026-04-23 11:49 55.20032 7.19214 36344 ft 452 kts 314°
2026-04-23 11:50 55.28714 7.03697 36347 ft 452 kts 314°
2026-04-23 11:50 55.37454 6.87974 36348 ft 452 kts 314°
2026-04-23 11:51 55.46017 6.72464 36356 ft 453 kts 314°
2026-04-23 11:51 55.54720 6.56593 36361 ft 452 kts 314°
2026-04-23 11:52 55.63175 6.41073 36366 ft 453 kts 313°
2026-04-23 11:52 55.71273 6.26112 36366 ft 453 kts 313°
2026-04-23 11:53 55.79543 6.10731 36367 ft 453 kts 312°
2026-04-23 11:53 55.87839 5.95201 36383 ft 452 kts 312°
2026-04-23 11:54 55.96146 5.79548 36373 ft 453 kts 312°
2026-04-23 11:54 56.04555 5.63595 36396 ft 454 kts 311°
2026-04-23 11:55 56.12548 5.48330 36393 ft 452 kts 311°
2026-04-23 11:55 56.20970 5.32136 36397 ft 454 kts 310°
2026-04-23 11:56 56.29205 5.16193 36405 ft 452 kts 310°
2026-04-23 11:56 56.37652 4.99727 36396 ft 454 kts 310°
2026-04-23 11:57 56.46105 4.83135 36414 ft 454 kts 310°
2026-04-23 11:57 56.54384 4.66767 36412 ft 453 kts 310°
2026-04-23 11:58 56.62561 4.50489 36431 ft 453 kts 310°
2026-04-23 11:58 56.70893 4.33785 36435 ft 453 kts 309°
2026-04-23 11:59 56.79133 4.17150 36447 ft 452 kts 309°
2026-04-23 11:59 56.87274 4.00598 36442 ft 452 kts 308°
2026-04-23 12:00 56.94070 3.82246 36454 ft 448 kts 298°
2026-04-23 12:00 57.00388 3.63431 36453 ft 448 kts 298°
2026-04-23 12:01 57.07844 3.45945 36471 ft 455 kts 309°
2026-04-23 12:01 57.15762 3.30130 36469 ft 454 kts 309°
2026-04-23 12:02 57.24167 3.13280 36469 ft 453 kts 309°
2026-04-23 12:02 57.32555 2.96349 36475 ft 453 kts 309°
2026-04-23 12:03 57.40926 2.79332 36477 ft 453 kts 308°
2026-04-23 12:03 57.49249 2.62286 36480 ft 453 kts 308°
2026-04-23 12:04 57.57606 2.45042 36486 ft 453 kts 308°
2026-04-23 12:04 57.65890 2.27827 36497 ft 452 kts 308°
2026-04-23 12:05 57.73960 2.10933 36512 ft 448 kts 307°
2026-04-23 12:05 57.82158 1.93640 36508 ft 452 kts 307°
2026-04-23 12:06 57.90372 1.76187 36498 ft 453 kts 307°
2026-04-23 12:06 58.02591 1.49980 36495 ft 451 kts 307°
2026-04-23 12:07 58.10669 1.32493 36498 ft 451 kts 306°
2026-04-23 12:07 58.18736 1.14897 36496 ft 450 kts 306°
2026-04-23 12:08 58.26835 0.97095 36499 ft 449 kts 306°
2026-04-23 12:08 58.34812 0.79428 36505 ft 450 kts 306°
2026-04-23 12:09 58.42804 0.61594 36516 ft 450 kts 306°
2026-04-23 12:09 58.50765 0.43693 36505 ft 451 kts 306°
2026-04-23 12:10 58.58286 0.26656 36519 ft 448 kts 305°
2026-04-23 12:10 58.66185 0.08625 36502 ft 448 kts 305°
2026-04-23 12:11 58.74102 -0.09590 36523 ft 449 kts 305°
2026-04-23 12:11 58.81923 -0.27718 36504 ft 446 kts 305°
2026-04-23 12:12 58.89735 -0.45972 36523 ft 447 kts 306°
2026-04-23 12:12 58.97448 -0.64134 36524 ft 445 kts 306°
2026-04-23 12:13 59.05000 -0.82055 36509 ft 446 kts 305°
2026-04-23 12:13 59.12512 -1.00016 36520 ft 444 kts 305°
2026-04-23 12:14 59.20025 -1.18119 36504 ft 442 kts 305°
2026-04-23 12:14 59.27578 -1.36464 36513 ft 444 kts 305°
2026-04-23 12:15 59.34907 -1.54402 36508 ft 442 kts 306°
2026-04-23 12:15 59.42188 -1.72356 36518 ft 441 kts 304°
2026-04-23 12:16 59.49762 -1.91186 36527 ft 442 kts 304°
2026-04-23 12:16 59.57225 -2.09888 36515 ft 441 kts 304°
2026-04-23 12:17 59.64704 -2.28780 36515 ft 442 kts 304°
2026-04-23 12:17 59.71810 -2.46875 36508 ft 441 kts 304°
2026-04-23 12:18 59.78470 -2.63962 36521 ft 442 kts 304°
2026-04-23 12:18 59.85333 -2.81699 36512 ft 441 kts 303°
2026-04-23 12:19 59.92472 -3.00294 36505 ft 441 kts 303°
2026-04-23 12:19 59.99815 -3.19576 36515 ft 441 kts 303°
2026-04-23 12:20 60.06945 -3.38454 36523 ft 443 kts 303°
2026-04-23 12:20 60.13569 -3.56131 36511 ft 443 kts 302°
2026-04-23 12:21 60.20351 -3.74366 36509 ft 443 kts 302°
2026-04-23 12:21 60.27115 -3.92701 36497 ft 444 kts 302°
2026-04-23 12:22 60.34007 -4.11531 36500 ft 444 kts 302°
2026-04-23 12:22 60.41199 -4.31341 36481 ft 443 kts 302°
2026-04-23 12:23 60.48371 -4.51268 36499 ft 444 kts 302°
2026-04-23 12:23 60.55505 -4.71258 36520 ft 444 kts 301°
2026-04-23 12:24 60.62418 -4.90799 36500 ft 444 kts 301°
2026-04-23 12:24 60.69329 -5.10494 36517 ft 444 kts 302°
2026-04-23 12:25 60.75995 -5.29653 36502 ft 444 kts 302°
2026-04-23 12:25 60.82896 -5.49654 36512 ft 445 kts 302°
2026-04-23 12:26 60.89816 -5.69884 36510 ft 444 kts 302°
2026-04-23 12:26 60.96629 -5.89978 36504 ft 445 kts 302°
2026-04-23 12:27 61.02310 -6.11368 36529 ft 443 kts 292°
2026-04-23 12:27 61.07223 -6.34035 36504 ft 441 kts 291°
2026-04-23 12:28 61.11884 -6.56194 36496 ft 441 kts 291°
2026-04-23 12:28 61.16647 -6.79145 37142 ft 443 kts 290°
2026-04-23 12:29 61.19023 -6.90693 37670 ft 444 kts 290°
2026-04-23 12:29 61.21387 -7.02253 38178 ft 444 kts 291°
2026-04-23 12:29 61.23705 -7.13643 38491 ft 439 kts 290°
2026-04-23 12:29 61.25927 -7.24632 38496 ft 442 kts 291°
2026-04-23 12:30 61.30131 -7.45581 38497 ft 442 kts 291°
2026-04-23 12:30 61.34647 -7.68330 38505 ft 443 kts 290°
2026-04-23 12:31 61.39187 -7.91455 38498 ft 442 kts 290°
2026-04-23 12:31 61.43708 -8.14768 38491 ft 443 kts 290°
2026-04-23 12:32 61.48181 -8.38093 38496 ft 443 kts 290°
2026-04-23 12:32 61.52613 -8.61488 38495 ft 444 kts 290°
2026-04-23 12:33 61.56840 -8.84057 38489 ft 444 kts 289°
2026-04-23 12:33 61.61209 -9.07667 38490 ft 444 kts 289°
2026-04-23 12:34 61.65609 -9.31738 38495 ft 446 kts 289°
2026-04-23 12:34 61.69712 -9.54451 38492 ft 446 kts 289°
2026-04-23 12:35 61.73762 -9.77145 38488 ft 445 kts 288°
2026-04-23 12:35 61.77929 -10.00776 38486 ft 446 kts 288°
2026-04-23 12:36 61.82153 -10.25039 38483 ft 445 kts 288°
2026-04-23 12:36 61.86306 -10.49204 38483 ft 447 kts 288°
2026-04-23 12:37 61.90272 -10.72578 38477 ft 448 kts 287°
2026-04-23 12:37 61.94154 -10.95745 38480 ft 447 kts 287°
2026-04-23 12:38 61.98041 -11.19238 38466 ft 448 kts 287°
2026-04-23 12:38 62.01942 -11.43122 38480 ft 447 kts 287°
2026-04-23 12:39 62.05902 -11.67702 38472 ft 447 kts 286°
2026-04-23 12:39 62.09822 -11.92359 38485 ft 450 kts 286°
2026-04-23 12:40 62.13747 -12.17400 38483 ft 446 kts 286°
2026-04-23 12:40 62.17623 -12.42486 38456 ft 449 kts 287°
2026-04-23 12:41 62.21461 -12.67671 38471 ft 450 kts 285°
2026-04-23 12:41 62.25230 -12.92776 38455 ft 448 kts 285°
2026-04-23 12:42 62.28648 -13.15865 38456 ft 452 kts 286°
2026-04-23 12:42 62.32339 -13.41146 38454 ft 451 kts 286°
2026-04-23 12:43 62.35966 -13.66370 38455 ft 452 kts 285°
2026-04-23 12:43 62.39468 -13.91081 38453 ft 453 kts 285°
2026-04-23 12:44 62.42975 -14.16214 38453 ft 454 kts 285°
2026-04-23 12:44 62.46502 -14.41875 38445 ft 454 kts 285°
2026-04-23 12:45 62.49912 -14.67084 38445 ft 456 kts 284°
2026-04-23 12:45 62.53330 -14.92753 38439 ft 455 kts 284°
2026-04-23 12:46 62.56739 -15.18774 38433 ft 458 kts 284°
2026-04-23 12:46 62.60066 -15.44588 38436 ft 457 kts 285°
2026-04-23 12:47 62.63363 -15.70611 38430 ft 457 kts 284°
2026-04-23 12:47 62.66544 -15.96132 38432 ft 457 kts 284°
2026-04-23 12:48 62.69750 -16.22304 38428 ft 457 kts 284°
2026-04-23 12:48 62.72852 -16.48066 38429 ft 457 kts 284°
2026-04-23 12:49 62.75907 -16.73882 38426 ft 458 kts 283°
2026-04-23 12:49 62.78856 -16.99249 38424 ft 458 kts 283°
2026-04-23 12:50 62.81811 -17.25120 38419 ft 458 kts 283°
2026-04-23 12:50 62.84804 -17.51815 38415 ft 459 kts 284°
2026-04-23 12:51 62.87621 -17.77410 38419 ft 458 kts 283°
2026-04-23 12:51 62.90384 -18.02980 38409 ft 457 kts 283°
2026-04-23 12:52 62.93162 -18.29193 38380 ft 459 kts 283°
2026-04-23 12:52 62.94490 -18.41896 37905 ft 446 kts 283°
2026-04-23 12:52 62.95767 -18.54243 36685 ft 446 kts 283°
2026-04-23 12:53 62.97092 -18.67169 35323 ft 440 kts 282°
2026-04-23 12:53 62.98761 -18.79480 33992 ft 438 kts 296°
2026-04-23 12:53 63.02133 -18.90341 33022 ft 440 kts 311°
2026-04-23 12:53 63.05764 -19.00454 32083 ft 444 kts 309°
2026-04-23 12:54 63.09410 -19.11278 31052 ft 438 kts 308°
2026-04-23 12:54 63.12735 -19.21402 30104 ft 428 kts 308°
2026-04-23 12:54 63.15911 -19.31188 29071 ft 418 kts 309°
2026-04-23 12:54 63.18897 -19.40446 28059 ft 412 kts 309°
2026-04-23 12:55 63.21936 -19.49925 27004 ft 404 kts 309°
2026-04-23 12:55 63.24538 -19.58072 26092 ft 397 kts 310°
2026-04-23 12:55 63.27362 -19.66951 25088 ft 390 kts 309°
2026-04-23 12:55 63.30070 -19.75493 24112 ft 385 kts 309°
2026-04-23 12:56 63.33064 -19.84978 22984 ft 377 kts 309°
2026-04-23 12:56 63.35928 -19.94087 21967 ft 367 kts 309°
2026-04-23 12:56 63.38763 -20.03146 20953 ft 362 kts 309°
2026-04-23 12:56 63.41590 -20.12206 19987 ft 358 kts 309°
2026-04-23 12:57 63.44354 -20.21108 19055 ft 352 kts 309°
2026-04-23 12:57 63.46984 -20.29607 18172 ft 348 kts 309°
2026-04-23 12:57 63.49591 -20.38061 17309 ft 344 kts 308°
2026-04-23 12:57 63.52048 -20.46059 16498 ft 341 kts 308°
2026-04-23 12:58 63.54637 -20.54520 15652 ft 336 kts 308°
2026-04-23 12:58 63.57244 -20.62992 14790 ft 332 kts 308°
2026-04-23 12:58 63.59800 -20.71267 13983 ft 328 kts 307°
2026-04-23 12:58 63.62384 -20.79665 13163 ft 324 kts 307°
2026-04-23 12:59 63.64894 -20.87852 12386 ft 320 kts 306°
2026-04-23 12:59 63.67365 -20.95939 11600 ft 315 kts 306°
2026-04-23 12:59 63.69722 -21.03685 10899 ft 312 kts 306°
2026-04-23 12:59 63.72089 -21.11492 10576 ft 287 kts 306°
2026-04-23 13:00 63.74311 -21.18836 9781 ft 284 kts 306°
2026-04-23 13:00 63.76405 -21.25793 9546 ft 267 kts 306°
2026-04-23 13:00 63.78503 -21.32778 9187 ft 272 kts 306°
2026-04-23 13:00 63.80376 -21.39033 8889 ft 270 kts 306°
2026-04-23 13:01 63.82134 -21.44921 8604 ft 268 kts 306°
2026-04-23 13:01 63.84135 -21.51649 7991 ft 270 kts 305°
2026-04-23 13:01 63.86167 -21.58504 7260 ft 263 kts 305°
2026-04-23 13:01 63.88178 -21.65303 6552 ft 261 kts 304°
2026-04-23 13:02 63.90163 -21.72039 5861 ft 259 kts 304°
2026-04-23 13:02 63.91207 -21.75588 5518 ft 257 kts 304°
2026-04-23 13:02 63.92207 -21.78993 5173 ft 255 kts 304°
2026-04-23 13:02 63.93179 -21.82299 4879 ft 254 kts 304°
2026-04-23 13:03 63.94172 -21.85672 4607 ft 252 kts 304°
2026-04-23 13:03 63.95130 -21.88932 4336 ft 250 kts 304°
2026-04-23 13:03 63.96103 -21.92245 4060 ft 249 kts 304°
2026-04-23 13:03 63.97049 -21.95474 3812 ft 247 kts 304°
2026-04-23 13:04 63.97965 -21.98805 3544 ft 242 kts 293°
2026-04-23 13:04 63.98278 -22.02441 3324 ft 234 kts 272°
2026-04-23 13:04 63.98323 -22.06106 3119 ft 230 kts 272°
2026-04-23 13:04 63.98368 -22.09732 2912 ft 226 kts 272°
2026-04-23 13:05 63.98397 -22.13270 2700 ft 222 kts 272°
2026-04-23 13:05 63.98419 -22.16764 2489 ft 219 kts 271°
2026-04-23 13:05 63.98436 -22.20202 2311 ft 214 kts 272°
2026-04-23 13:05 63.98448 -22.23521 2164 ft 207 kts 271°
2026-04-23 13:06 63.98460 -22.29884 1790 ft 197 kts 272°
2026-04-23 13:06 63.98466 -22.32918 1770 ft 182 kts 272°
2026-04-23 13:06 63.98470 -22.35636 1746 ft 169 kts 272°
2026-04-23 13:07 63.98478 -22.38403 1781 ft 178 kts 272°
2026-04-23 13:07 63.98483 -22.41142 1745 ft 169 kts 272°
2026-04-23 13:07 63.98487 -22.43807 1598 ft 168 kts 272°
2026-04-23 13:07 63.98492 -22.46469 1343 ft 162 kts 272°
2026-04-23 13:08 63.98494 -22.48906 1131 ft 146 kts 271°
2026-04-23 13:08 63.98497 -22.51099 902 ft 130 kts 271°
2026-04-23 13:08 63.98501 -22.53147 759 ft 131 kts 272°
2026-04-23 13:08 63.98505 -22.55220 575 ft 128 kts 271°
2026-04-23 13:09 63.98506 -22.57269 393 ft 131 kts 272°
2026-04-23 13:09 63.98504 -22.59346 206 ft 130 kts 271°
2026-04-23 13:09 63.98506 -22.61210 150 ft 95 kts 270°
2026-04-23 13:09 63.98506 -22.62356 141 ft 53 kts 270°
2026-04-23 13:10 63.98507 -22.63064 136 ft 36 kts 270°
2026-04-23 13:10 63.98515 -22.63564 130 ft 30 kts 282°
2026-04-23 13:10 63.98593 -22.63982 126 ft 24 kts 300°
2026-04-23 13:10 63.98719 -22.64161 124 ft 23 kts 359°
2026-04-23 13:11 63.98846 -22.64096 125 ft 17 kts 67°
2026-04-23 13:11 63.98854 -22.63843 130 ft 14 kts 90°
2026-04-23 13:11 63.98853 -22.63573 133 ft 20 kts 90°
2026-04-23 13:11 63.98854 -22.63173 138 ft 29 kts 91°
2026-04-23 13:12 63.98869 -22.62921 141 ft 14 kts 44°
2026-04-23 13:12 63.98964 -22.62829 141 ft 16 kts 18°
2026-04-23 13:12 63.99097 -22.62737 141 ft 21 kts 17°
2026-04-23 13:12 63.99165 -22.62651 141 ft 10 kts 69°
2026-04-23 13:13 63.99172 -22.62506 141 ft 6 kts 88°
2026-04-23 13:13 63.99180 -22.62469 142 ft 2 kts 20°
2026-04-23 13:13 63.99210 -22.62462 142 ft 6 kts
2026-04-23 13:13 63.99256 -22.62461 142 ft 7 kts
2026-04-23 13:14 63.99274 -22.62461 142 ft 0 kts